[[{"header":{"parameterUnit":"m.s-1","parameterCategory":1,"la1":30.2991,"la2":30.254,"lo1":-89.0895,"lo2":-89.0444,"dy":0.0017,"dx":0.0017,"nx":28,"ny":28,"refTime":"2024-05-09T21:00:00:Z","depth":0,"parameterNumber":2,"parameterNumberName":"U-component_of_WINDS"},"data":[0,0,0,0,0,0,0,0,0,0,0,0,0,0,0,0,0,0,0,0,0,0,0,0,0,0,0,0,0,0,0,0,0,0,0,0,0,0,0,0,0,0,0,0,0,0,0,0,0,0,0,0,0,0,0,0,0,0,0.6465,0.6466,0,0.6495,0.6496,0.6496,0.6515,0.6515,0.6515,0.6515,0.6544,0.6545,0.6545,0,0,0,0,0,0,0,0,0,0,0,0,0,0.6425,0.6425,0.6465,0.6466,0.6466,0.6495,0.6496,0.6496,0.6515,0.6515,0.6515,0.6515,0.6544,0.6545,0.6546,0,0,0,0,0,0,0,0,0,0,0,0,0,0.6447,0.6425,0.6465,0.6479,0.6481,0.6495,0.6496,0.6496,0.6515,0.6515,0.6515,0.6515,0.6544,0.6545,0.6546,0.6548,0,0,0.6549,0.6549,0,0,0,0,0,0,0,0,0.6446,0.6449,0.6477,0.6478,0.648,0.6502,0.6492,0.6513,0.6515,0.6502,0.6515,0.6516,0.653,0.6532,0.6537,0.6549,0.6551,0.6549,0.6549,0.655,0.655,0,0,0,0,0,0,0,0.6444,0.6447,0.6477,0.6477,0.6479,0.6484,0.6487,0.6496,0.6514,0.6503,0.6504,0.6508,0.6531,0.6536,0.6538,0.6551,0.6549,0.655,0.655,0.6551,0.6569,0.6568,0,0,0,0,0,0,0.6441,0.6446,0.6476,0.6478,0.6463,0.6484,0.6488,0.6494,0.6514,0.6518,0.6508,0.6509,0.6534,0.6537,0.6539,0.6544,0.655,0.6551,0.6551,0.6569,0.6569,0.6568,0,0,0,0,0,0,0.644,0.6443,0.6475,0.6462,0.6467,0.6485,0.6492,0.6495,0.65,0.6518,0.6521,0.651,0.6535,0.6538,0.6546,0.6545,0.6551,0.6552,0.6569,0.6569,0.6568,0.6553,0,0,0,0,0,0,0.6438,0.6443,0.6444,0.6462,0.6467,0.6482,0.6492,0.6495,0.6502,0.6504,0.6521,0.6524,0.6535,0.6545,0.6547,0.6547,0.6553,0.6569,0.6569,0.6569,0.6554,0.6552,0.6551,0,0,0,0,0,0.6437,0.6437,0.6444,0.6447,0.6469,0.6482,0.6484,0.6498,0.6502,0.6503,0.6515,0.6523,0.6545,0.6545,0.6548,0.6548,0.6569,0.6569,0.6569,0.6554,0.6553,0.6551,0,0,0,0,0,0,0.6417,0.644,0.6447,0.6454,0.6466,0.6485,0.6487,0.6495,0.6506,0.6507,0.6522,0.6526,0.6533,0.6542,0.6541,0.6552,0.6558,0.6558,0.6546,0.6545,0.6544,0.6541,0.6554,0,0,0,0,0,0.6414,0.6422,0.6442,0.6446,0.6452,0.6468,0.6474,0.6483,0.6496,0.6501,0.6513,0.6525,0.6534,0.654,0.655,0.6556,0.656,0.6557,0.6556,0.6555,0.6554,0.6559,0.6558,0.6568,0.6568,0.6568,0,0,0.6406,0.642,0.6424,0.6442,0.6453,0.6461,0.6472,0.648,0.6486,0.6502,0.6511,0.6521,0.6535,0.6542,0.6546,0.6549,0.6553,0.6554,0.6553,0.6554,0.6559,0.6558,0.6557,0.6567,0.6567,0.6567,0,0,0.6397,0.6409,0.6414,0.6424,0.644,0.6452,0.6453,0.6471,0.6478,0.6488,0.65,0.6508,0.6524,0.6534,0.6541,0.6538,0.6546,0.6541,0.6534,0.6538,0.6537,0.6537,0.6536,0.6535,0.654,0.654,0.654,0,0.6386,0.6399,0.6415,0.6423,0.6431,0.6447,0.6452,0.6461,0.6479,0.6484,0.6488,0.651,0.652,0.653,0.653,0.6535,0.6537,0.6538,0.6536,0.6536,0.6535,0.6535,0.6534,0.654,0.654,0.654,0.654,0,0.6385,0.6394,0.6396,0.6414,0.6423,0.6429,0.6446,0.6452,0.6462,0.6473,0.6483,0.6496,0.651,0.6513,0.6522,0.6525,0.6527,0.6533,0.6539,0.6533,0.6533,0.6533,0.6539,0.6539,0.6539,0.6539,0,0,0.6362,0.6391,0.6391,0.64,0.642,0.6427,0.6435,0.6449,0.6454,0.6467,0.6474,0.6488,0.6494,0.6503,0.6513,0.6517,0.6514,0.6523,0.6523,0.6521,0.6519,0.6514,0.6513,0.652,0.652,0.652,0.6518,0,0.6356,0.6371,0.6386,0.6396,0.6405,0.6421,0.6428,0.6441,0.6452,0.6461,0.6473,0.6483,0.6491,0.6496,0.6501,0.6513,0.6514,0.6514,0.6527,0.6527,0.6522,0.6513,0.6507,0.6505,0.6518,0.6518,0.6518,0,0.635,0.6363,0.6373,0.6394,0.6398,0.6404,0.6419,0.6427,0.6443,0.6451,0.6461,0.6472,0.6482,0.6488,0.6501,0.6501,0.6507,0.6514,0.6514,0.6516,0.6521,0.6514,0.6504,0.6503,0.6518,0.6518,0.6518,0,0.6332,0.6352,0.6362,0.6369,0.6393,0.6397,0.6407,0.6422,0.643,0.6443,0.6449,0.6462,0.647,0.648,0.6495,0.6498,0.6507,0.6514,0.6514,0.6514,0.6514,0.6514,0.6505,0.6519,0.6519,0.6519,0.6519,0,0.6323,0.6329,0.6354,0.636,0.6367,0.6385,0.6392,0.6404,0.6418,0.6426,0.6441,0.6449,0.6468,0.6478,0.649,0.65,0.6503,0.651,0.6513,0.6508,0.6507,0.6512,0.6512,0.6519,0.6519,0.6519,0.6519,0,0.6304,0.6321,0.6332,0.6355,0.6361,0.6365,0.6385,0.6391,0.6404,0.6414,0.6418,0.6437,0.645,0.6467,0.6484,0.6492,0.65,0.6505,0.6495,0.6497,0.6496,0.6496,0.6489,0.6489,0.6504,0.6503,0.6503,0,0.6296,0.6301,0.6325,0.6332,0.6342,0.6353,0.6362,0.638,0.6389,0.6408,0.6412,0.6426,0.6438,0.6458,0.6474,0.6488,0.6493,0.649,0.6495,0.6491,0.6493,0.6492,0.6493,0.6488,0.6488,0.6488,0.6488,0,0.6281,0.629,0.6302,0.6318,0.6328,0.6341,0.6355,0.636,0.6381,0.639,0.6404,0.6413,0.6433,0.6446,0.6463,0.6473,0.6484,0.6486,0.6487,0.6482,0.6476,0.6479,0.6491,0.6486,0.6486,0.6486,0.6486,0.6486,0.6267,0.6273,0.6291,0.6304,0.6317,0.633,0.6338,0.6352,0.6364,0.6382,0.6392,0.6406,0.6423,0.6446,0.6457,0.6468,0.6472,0.6472,0.6473,0.6472,0.6471,0.6475,0.6471,0.6471,0.6471,0.6471,0.6471,0,0.6252,0.6266,0.6278,0.6297,0.6308,0.6319,0.6335,0.6344,0.6356,0.6371,0.6384,0.64,0.6414,0.6432,0.6448,0.6453,0.6459,0.6457,0.6456,0.6459,0.6466,0.6464,0.6452,0.6452,0.6452,0.6452,0.6452,0.6452,0.6246,0.6257,0.6268,0.6286,0.6299,0.6313,0.6321,0.6334,0.6346,0.6364,0.6377,0.6389,0.6406,0.6423,0.6437,0.6442,0.6447,0.6443,0.645,0.6456,0.6458,0.6459,0.6458,0.6444,0.6444,0.6441,0.6441,0.6441]},{"header":{"parameterUnit":"m.s-1","parameterCategory":1,"la1":30.2991,"la2":30.254,"lo1":-89.0895,"lo2":-89.0444,"dy":0.0017,"dx":0.0017,"nx":28,"ny":28,"refTime":"2024-05-09T21:00:00:Z","depth":0,"parameterNumber":3,"parameterNumberName":"V-component_of_WINDS"},"data":[0,0,0,0,0,0,0,0,0,0,0,0,0,0,0,0,0,0,0,0,0,0,0,0,0,0,0,0,0,0,0,0,0,0,0,0,0,0,0,0,0,0,0,0,0,0,0,0,0,0,0,0,0,0,0,0,0,0,-6.0321,-6.0322,0,-6.0395,-6.0396,-6.0397,-6.0303,-6.03,-6.0297,-6.0293,-6.0364,-6.0369,-6.0374,0,0,0,0,0,0,0,0,0,0,0,0,0,-6.0094,-6.0099,-6.0321,-6.0322,-6.0323,-6.0395,-6.0396,-6.0397,-6.0304,-6.03,-6.0296,-6.0292,-6.0362,-6.0368,-6.0374,0,0,0,0,0,0,0,0,0,0,0,0,0,-6.0183,-6.01,-6.0321,-6.0285,-6.0283,-6.0395,-6.0396,-6.0397,-6.0305,-6.03,-6.0295,-6.029,-6.036,-6.0368,-6.0375,-6.0524,0,0,-6.0398,-6.0402,0,0,0,0,0,0,0,0,-6.0178,-6.0191,-6.029,-6.0288,-6.0285,-6.0335,-6.0342,-6.0439,-6.0306,-6.0296,-6.0293,-6.0287,-6.0358,-6.0366,-6.039,-6.0527,-6.053,-6.0399,-6.0404,-6.0407,-6.0409,0,0,0,0,0,0,0,-6.0172,-6.0187,-6.035,-6.0291,-6.0289,-6.0264,-6.0271,-6.036,-6.0355,-6.0297,-6.029,-6.0301,-6.0356,-6.0383,-6.0391,-6.0531,-6.0399,-6.0406,-6.041,-6.0413,-6.0794,-6.0799,0,0,0,0,0,0,-6.0171,-6.0183,-6.0348,-6.0352,-6.0218,-6.0272,-6.028,-6.0324,-6.0354,-6.0353,-6.0305,-6.0296,-6.0373,-6.0383,-6.0394,-6.057,-6.0407,-6.0414,-6.0418,-6.0789,-6.0795,-6.0801,0,0,0,0,0,0,-6.0166,-6.0186,-6.0345,-6.0266,-6.0284,-6.0282,-6.0332,-6.0328,-6.0356,-6.036,-6.0358,-6.0334,-6.0369,-6.0383,-6.0493,-6.0571,-6.0417,-6.0424,-6.0782,-6.0791,-6.0798,-6.0924,0,0,0,0,0,0,-6.016,-6.0185,-6.0243,-6.0268,-6.0289,-6.0444,-6.0337,-6.0333,-6.0369,-6.0359,-6.0387,-6.0386,-6.0366,-6.0482,-6.05,-6.0579,-6.043,-6.0775,-6.0786,-6.0796,-6.0913,-6.0936,-6.0955,0,0,0,0,0,-6.0152,-6.0274,-6.0246,-6.0266,-6.0361,-6.0449,-6.0461,-6.0437,-6.0376,-6.0433,-6.0436,-6.0386,-6.056,-6.0494,-6.0514,-6.0596,-6.077,-6.0783,-6.0795,-6.0903,-6.0931,-6.0955,0,0,0,0,0,0,-6.0256,-6.0276,-6.0246,-6.038,-6.0414,-6.0433,-6.0504,-6.0467,-6.0517,-6.0505,-6.0471,-6.0478,-6.0596,-6.0606,-6.0533,-6.0741,-6.0654,-6.0672,-6.073,-6.0757,-6.0778,-6.0772,-6.0436,0,0,0,0,0,-6.0294,-6.0366,-6.0379,-6.0496,-6.0515,-6.0507,-6.0545,-6.0523,-6.0556,-6.057,-6.058,-6.0613,-6.0675,-6.0716,-6.0773,-6.0914,-6.0919,-6.098,-6.1001,-6.1019,-6.1034,-6.1109,-6.1137,-6.0843,-6.0842,-6.0842,0,0,-6.0374,-6.0395,-6.0441,-6.0517,-6.0541,-6.0615,-6.052,-6.0601,-6.0655,-6.0581,-6.0686,-6.0696,-6.0729,-6.0856,-6.0912,-6.0868,-6.1116,-6.1035,-6.1049,-6.1054,-6.1125,-6.1153,-6.1178,-6.0851,-6.0849,-6.0848,0,0,-6.0558,-6.0581,-6.0681,-6.0707,-6.0745,-6.0739,-6.0764,-6.079,-6.0793,-6.0899,-6.0845,-6.0908,-6.1015,-6.1042,-6.107,-6.1265,-6.122,-6.1284,-6.1395,-6.1469,-6.1492,-6.1512,-6.1582,-6.1608,-6.1299,-6.13,-6.13,0,-6.0652,-6.0762,-6.0736,-6.0823,-6.0857,-6.0796,-6.0897,-6.0923,-6.0977,-6.1002,-6.0953,-6.1088,-6.1106,-6.1238,-6.1286,-6.131,-6.1336,-6.1281,-6.1491,-6.1511,-6.153,-6.1596,-6.1622,-6.1307,-6.1306,-6.1306,-6.1305,0,-6.0876,-6.0954,-6.103,-6.1086,-6.1129,-6.1222,-6.1209,-6.1256,-6.1231,-6.123,-6.1338,-6.1358,-6.1419,-6.1449,-6.1424,-6.1577,-6.1549,-6.1497,-6.1408,-6.1566,-6.1628,-6.1653,-6.1318,-6.1315,-6.1313,-6.1311,0,0,-6.1126,-6.1169,-6.1197,-6.1222,-6.126,-6.1319,-6.1408,-6.147,-6.1511,-6.155,-6.1624,-6.1717,-6.1669,-6.17,-6.1678,-6.1743,-6.1897,-6.1682,-6.1682,-6.1722,-6.2067,-6.2107,-6.2137,-6.1868,-6.1872,-6.1876,-6.2064,0,-6.131,-6.1468,-6.1448,-6.1599,-6.167,-6.1613,-6.1691,-6.1722,-6.1724,-6.1783,-6.1784,-6.1851,-6.1782,-6.1801,-6.1862,-6.1865,-6.1966,-6.1851,-6.1935,-6.1939,-6.1929,-6.2169,-6.2211,-6.2388,-6.2088,-6.2092,-6.2095,0,-6.1546,-6.1597,-6.1756,-6.1784,-6.1813,-6.1884,-6.1939,-6.1996,-6.203,-6.2026,-6.2063,-6.203,-6.2118,-6.2029,-6.2151,-6.2073,-6.2106,-6.2113,-6.2119,-6.2126,-6.2027,-6.2182,-6.2443,-6.247,-6.2133,-6.213,-6.2127,0,-6.1713,-6.1821,-6.193,-6.1953,-6.1989,-6.204,-6.2056,-6.2085,-6.2124,-6.2171,-6.2196,-6.2252,-6.2283,-6.2327,-6.2309,-6.2246,-6.2434,-6.2344,-6.2433,-6.2434,-6.2475,-6.2473,-6.2746,-6.2497,-6.2496,-6.2496,-6.2495,0,-6.1921,-6.2021,-6.2006,-6.2073,-6.2182,-6.2157,-6.2266,-6.2275,-6.2302,-6.2368,-6.2322,-6.2385,-6.2358,-6.242,-6.2406,-6.2509,-6.2523,-6.2522,-6.2517,-6.2526,-6.2527,-6.2547,-6.2535,-6.2503,-6.2501,-6.25,-6.2499,0,-6.2126,-6.2121,-6.2236,-6.2261,-6.2269,-6.2349,-6.2369,-6.2431,-6.243,-6.2515,-6.2533,-6.2531,-6.2601,-6.2588,-6.2664,-6.2655,-6.2784,-6.2763,-6.2773,-6.2768,-6.2859,-6.2851,-6.3154,-6.3193,-6.2919,-6.2922,-6.2924,0,-6.226,-6.2335,-6.2369,-6.2412,-6.2433,-6.2502,-6.2541,-6.252,-6.2562,-6.2607,-6.2664,-6.273,-6.2782,-6.2896,-6.29,-6.2958,-6.2939,-6.3041,-6.2947,-6.2954,-6.2941,-6.2937,-6.2944,-6.306,-6.3063,-6.3066,-6.3068,0,-6.2497,-6.2491,-6.2551,-6.2611,-6.266,-6.2706,-6.2746,-6.2783,-6.2765,-6.2815,-6.2887,-6.2928,-6.3007,-6.3073,-6.3127,-6.3142,-6.3102,-6.3098,-6.3121,-6.3132,-6.3134,-6.3134,-6.2824,-6.3091,-6.3088,-6.3087,-6.3085,-6.3084,-6.267,-6.2735,-6.2769,-6.2838,-6.2867,-6.2906,-6.2967,-6.2974,-6.3034,-6.3098,-6.3081,-6.3163,-6.3194,-6.3264,-6.3286,-6.3348,-6.331,-6.3344,-6.3353,-6.3362,-6.3373,-6.3125,-6.3358,-6.3357,-6.3356,-6.3356,-6.3355,0,-6.2905,-6.2925,-6.2989,-6.3048,-6.3102,-6.3062,-6.3105,-6.3152,-6.3226,-6.326,-6.3312,-6.3395,-6.3459,-6.3469,-6.3529,-6.3577,-6.356,-6.3594,-6.359,-6.3594,-6.3404,-6.3377,-6.3607,-6.3607,-6.3607,-6.3606,-6.3606,-6.3606,-6.3034,-6.3142,-6.314,-6.3261,-6.3279,-6.3361,-6.3389,-6.3425,-6.3452,-6.3548,-6.3602,-6.3608,-6.3632,-6.3694,-6.3751,-6.3751,-6.3776,-6.3817,-6.3811,-6.3633,-6.3607,-6.3584,-6.3559,-6.3822,-6.3822,-6.3996,-6.3997,-6.3999]}]]